[[{"header":{"parameterUnit":"m.s-1","parameterCategory":1,"la1":30.2991,"la2":30.254,"lo1":-89.0895,"lo2":-89.0444,"dy":0.0017,"dx":0.0017,"nx":28,"ny":28,"refTime":"2024-02-23T09:00:00:Z","depth":0,"parameterNumber":2,"parameterNumberName":"U-component_of_WINDS"},"data":[0,0,0,0,0,0,0,0,0,0,0,0,0,0,0,0,0,0,0,0,0,0,0,0,0,0,0,0,0,0,0,0,0,0,0,0,0,0,0,0,0,0,0,0,0,0,0,0,0,0,0,0,0,0,0,0,0,0,-1.4222,-1.4222,0,-1.4229,-1.423,-1.423,-1.4197,-1.4197,-1.4196,-1.4195,-1.4202,-1.4203,-1.4204,0,0,0,0,0,0,0,0,0,0,0,0,0,-1.418,-1.4181,-1.4222,-1.4222,-1.4222,-1.4229,-1.423,-1.423,-1.4198,-1.4197,-1.4195,-1.4194,-1.4202,-1.4203,-1.4205,0,0,0,0,0,0,0,0,0,0,0,0,0,-1.4194,-1.4182,-1.4222,-1.4207,-1.4206,-1.4229,-1.423,-1.423,-1.4198,-1.4196,-1.4195,-1.4194,-1.4202,-1.4203,-1.4205,-1.4243,0,0,-1.421,-1.421,0,0,0,0,0,0,0,0,-1.4194,-1.4196,-1.4209,-1.4208,-1.4207,-1.4211,-1.4218,-1.4234,-1.4198,-1.4201,-1.4195,-1.4193,-1.4206,-1.4208,-1.4212,-1.4243,-1.4244,-1.421,-1.4211,-1.4212,-1.4212,0,0,0,0,0,0,0,-1.4193,-1.4195,-1.4225,-1.421,-1.4208,-1.42,-1.4201,-1.4221,-1.4212,-1.4201,-1.4198,-1.42,-1.4205,-1.4211,-1.4212,-1.4244,-1.421,-1.4211,-1.4212,-1.4213,-1.4307,-1.4308,0,0,0,0,0,0,-1.4194,-1.4195,-1.4225,-1.4225,-1.4197,-1.4202,-1.4203,-1.4211,-1.4211,-1.421,-1.4201,-1.4198,-1.4208,-1.421,-1.4212,-1.4257,-1.4212,-1.4213,-1.4214,-1.4305,-1.4307,-1.4309,0,0,0,0,0,0,-1.4193,-1.4197,-1.4225,-1.4209,-1.4212,-1.4204,-1.4214,-1.4212,-1.4217,-1.4211,-1.421,-1.4208,-1.4207,-1.421,-1.4236,-1.4257,-1.4214,-1.4215,-1.4304,-1.4306,-1.4308,-1.4347,0,0,0,0,0,0,-1.4192,-1.4197,-1.4211,-1.421,-1.4213,-1.4248,-1.4216,-1.4213,-1.422,-1.4216,-1.4217,-1.4216,-1.4207,-1.4233,-1.4237,-1.4258,-1.4217,-1.4302,-1.4305,-1.4307,-1.4344,-1.4351,-1.4356,0,0,0,0,0,-1.419,-1.4222,-1.4212,-1.4216,-1.4231,-1.4249,-1.4251,-1.4239,-1.4222,-1.4236,-1.4233,-1.4216,-1.4254,-1.4236,-1.424,-1.4262,-1.43,-1.4304,-1.4307,-1.4341,-1.4349,-1.4356,0,0,0,0,0,0,-1.4225,-1.4221,-1.421,-1.4242,-1.4246,-1.4244,-1.4262,-1.4248,-1.4258,-1.4254,-1.4239,-1.4239,-1.4268,-1.4267,-1.4248,-1.4299,-1.4274,-1.4278,-1.4299,-1.4306,-1.4312,-1.4312,-1.4218,0,0,0,0,0,-1.4237,-1.4252,-1.4247,-1.4276,-1.4279,-1.427,-1.4277,-1.4268,-1.4272,-1.4273,-1.4271,-1.4276,-1.4288,-1.4297,-1.4309,-1.4344,-1.4343,-1.4361,-1.4367,-1.4372,-1.4376,-1.4395,-1.4402,-1.432,-1.432,-1.432,0,0,-1.4261,-1.426,-1.4271,-1.4283,-1.4285,-1.4301,-1.4272,-1.429,-1.4301,-1.4276,-1.43,-1.4299,-1.4303,-1.4333,-1.4347,-1.4334,-1.4399,-1.4376,-1.438,-1.4382,-1.4399,-1.4407,-1.4414,-1.4323,-1.4322,-1.4322,0,0,-1.4312,-1.4313,-1.4337,-1.434,-1.4344,-1.4338,-1.4343,-1.4343,-1.4341,-1.4365,-1.4347,-1.436,-1.4383,-1.4386,-1.4391,-1.4444,-1.4429,-1.4448,-1.448,-1.4498,-1.4505,-1.451,-1.4529,-1.4536,-1.4452,-1.4452,-1.4452,0,-1.4341,-1.4365,-1.4351,-1.4371,-1.4377,-1.4355,-1.4379,-1.4382,-1.4389,-1.4394,-1.4379,-1.4407,-1.4408,-1.4439,-1.4452,-1.4457,-1.4463,-1.4448,-1.4505,-1.451,-1.4515,-1.4533,-1.4541,-1.4454,-1.4454,-1.4454,-1.4453,0,-1.44,-1.4417,-1.4436,-1.4443,-1.4451,-1.4473,-1.4463,-1.4473,-1.4463,-1.4459,-1.4484,-1.4484,-1.4495,-1.4502,-1.4492,-1.4532,-1.4524,-1.4507,-1.4482,-1.4526,-1.4542,-1.4549,-1.4457,-1.4457,-1.4456,-1.4455,0,0,-1.4474,-1.4474,-1.4482,-1.4485,-1.4487,-1.45,-1.452,-1.4531,-1.454,-1.4546,-1.4563,-1.4582,-1.4567,-1.4572,-1.4563,-1.4579,-1.4621,-1.4561,-1.456,-1.4572,-1.4665,-1.4678,-1.4686,-1.4611,-1.4613,-1.4614,-1.4665,0,-1.4525,-1.4561,-1.4549,-1.4585,-1.46,-1.4579,-1.4598,-1.4601,-1.4597,-1.461,-1.4605,-1.462,-1.4598,-1.4602,-1.4617,-1.4613,-1.464,-1.4609,-1.4627,-1.4628,-1.4627,-1.4695,-1.4708,-1.4757,-1.4671,-1.4672,-1.4673,0,-1.4589,-1.4597,-1.4635,-1.4635,-1.4641,-1.4657,-1.4666,-1.4678,-1.4682,-1.4678,-1.4684,-1.4671,-1.4692,-1.4666,-1.4694,-1.4673,-1.468,-1.4679,-1.4681,-1.4682,-1.4654,-1.4698,-1.4772,-1.4779,-1.4683,-1.4683,-1.4682,0,-1.464,-1.466,-1.4685,-1.4689,-1.4689,-1.4701,-1.4702,-1.4704,-1.4711,-1.4719,-1.4724,-1.4734,-1.474,-1.4748,-1.4738,-1.472,-1.4768,-1.4741,-1.4765,-1.4766,-1.4777,-1.4776,-1.4853,-1.4781,-1.4781,-1.478,-1.478,0,-1.4698,-1.4722,-1.4708,-1.4724,-1.475,-1.4737,-1.4763,-1.4761,-1.4763,-1.4778,-1.476,-1.4775,-1.4761,-1.4774,-1.4766,-1.4791,-1.4793,-1.4791,-1.4789,-1.4793,-1.4793,-1.4797,-1.4793,-1.4782,-1.4782,-1.4782,-1.4781,0,-1.4759,-1.4751,-1.4777,-1.4775,-1.4775,-1.4795,-1.4793,-1.4807,-1.4802,-1.4821,-1.4825,-1.4817,-1.4832,-1.4823,-1.4837,-1.4832,-1.4864,-1.4857,-1.4863,-1.4861,-1.4886,-1.4884,-1.4968,-1.4979,-1.49,-1.4901,-1.4901,0,-1.4796,-1.4814,-1.4815,-1.4823,-1.4825,-1.4839,-1.4847,-1.4834,-1.4843,-1.4848,-1.4862,-1.4875,-1.4884,-1.4909,-1.4904,-1.4915,-1.4909,-1.4937,-1.491,-1.4914,-1.4909,-1.4909,-1.491,-1.4943,-1.4944,-1.4945,-1.4945,0,-1.4864,-1.4859,-1.4871,-1.4881,-1.4891,-1.4898,-1.4904,-1.4912,-1.4899,-1.491,-1.4924,-1.4932,-1.4947,-1.496,-1.4969,-1.497,-1.4956,-1.4954,-1.496,-1.4964,-1.4967,-1.4966,-1.4878,-1.4952,-1.4951,-1.4951,-1.495,-1.495,-1.4915,-1.493,-1.4933,-1.4946,-1.4949,-1.4955,-1.4968,-1.4965,-1.4977,-1.4988,-1.498,-1.4998,-1.5001,-1.5012,-1.5014,-1.5028,-1.5016,-1.5025,-1.5027,-1.503,-1.5033,-1.4965,-1.5029,-1.5029,-1.5029,-1.5029,-1.5028,0,-1.4982,-1.4983,-1.4995,-1.5004,-1.5015,-1.5,-1.5006,-1.5016,-1.5031,-1.5035,-1.5045,-1.5062,-1.5075,-1.5071,-1.5083,-1.5094,-1.5088,-1.5098,-1.5097,-1.5097,-1.5043,-1.5037,-1.5102,-1.5102,-1.5102,-1.5102,-1.5102,-1.5102,-1.5018,-1.5043,-1.5039,-1.5065,-1.5065,-1.5082,-1.5087,-1.5092,-1.5095,-1.5115,-1.5125,-1.5123,-1.5124,-1.5135,-1.5146,-1.5145,-1.515,-1.5162,-1.5159,-1.5108,-1.5101,-1.5094,-1.5088,-1.5163,-1.5164,-1.5212,-1.5212,-1.5212]},{"header":{"parameterUnit":"m.s-1","parameterCategory":1,"la1":30.2991,"la2":30.254,"lo1":-89.0895,"lo2":-89.0444,"dy":0.0017,"dx":0.0017,"nx":28,"ny":28,"refTime":"2024-02-23T09:00:00:Z","depth":0,"parameterNumber":3,"parameterNumberName":"V-component_of_WINDS"},"data":[0,0,0,0,0,0,0,0,0,0,0,0,0,0,0,0,0,0,0,0,0,0,0,0,0,0,0,0,0,0,0,0,0,0,0,0,0,0,0,0,0,0,0,0,0,0,0,0,0,0,0,0,0,0,0,0,0,0,-1.5991,-1.5991,0,-1.6068,-1.6069,-1.607,-1.6087,-1.6086,-1.6086,-1.6085,-1.6163,-1.6165,-1.6168,0,0,0,0,0,0,0,0,0,0,0,0,0,-1.5856,-1.5858,-1.5991,-1.5992,-1.5992,-1.6068,-1.6069,-1.607,-1.6087,-1.6086,-1.6085,-1.6085,-1.6162,-1.6165,-1.6168,0,0,0,0,0,0,0,0,0,0,0,0,0,-1.5922,-1.5859,-1.599,-1.601,-1.6012,-1.6068,-1.6069,-1.607,-1.6087,-1.6086,-1.6085,-1.6084,-1.6161,-1.6165,-1.6169,-1.621,0,0,-1.6181,-1.6182,0,0,0,0,0,0,0,0,-1.5918,-1.5927,-1.6006,-1.6009,-1.6012,-1.6067,-1.605,-1.6117,-1.6087,-1.6059,-1.6085,-1.6084,-1.6132,-1.6138,-1.6154,-1.6213,-1.6217,-1.6181,-1.6183,-1.6185,-1.6186,0,0,0,0,0,0,0,-1.5913,-1.5923,-1.6021,-1.6007,-1.6011,-1.6014,-1.6023,-1.6063,-1.6099,-1.6061,-1.6062,-1.6071,-1.6133,-1.615,-1.6156,-1.6218,-1.6181,-1.6184,-1.6187,-1.6188,-1.6314,-1.6315,0,0,0,0,0,0,-1.5906,-1.5919,-1.6019,-1.6024,-1.5962,-1.6018,-1.6027,-1.605,-1.6098,-1.6105,-1.6072,-1.6072,-1.6144,-1.6152,-1.6159,-1.621,-1.6185,-1.6189,-1.6191,-1.6313,-1.6315,-1.6316,0,0,0,0,0,0,-1.5903,-1.5914,-1.6016,-1.5972,-1.5985,-1.6021,-1.6046,-1.6052,-1.6069,-1.6107,-1.6113,-1.6083,-1.6144,-1.6153,-1.6197,-1.6213,-1.619,-1.6194,-1.6312,-1.6314,-1.6315,-1.6313,0,0,0,0,0,0,-1.5899,-1.5913,-1.5929,-1.5972,-1.5987,-1.6053,-1.6047,-1.6054,-1.6076,-1.6077,-1.6119,-1.6125,-1.6144,-1.6191,-1.6201,-1.6218,-1.6197,-1.6311,-1.6313,-1.6315,-1.6312,-1.6314,-1.6316,0,0,0,0,0,-1.5894,-1.5925,-1.593,-1.5942,-1.6008,-1.6054,-1.6062,-1.6083,-1.6078,-1.6094,-1.6118,-1.6124,-1.621,-1.6195,-1.6207,-1.6225,-1.631,-1.6312,-1.6315,-1.6311,-1.6314,-1.6316,0,0,0,0,0,0,-1.5882,-1.5931,-1.5937,-1.5983,-1.6014,-1.6056,-1.6078,-1.6086,-1.6119,-1.6118,-1.6142,-1.6152,-1.6194,-1.6214,-1.6197,-1.6267,-1.626,-1.6264,-1.6253,-1.6256,-1.6258,-1.6252,-1.62,0,0,0,0,0,-1.5885,-1.5918,-1.5959,-1.5996,-1.6011,-1.6042,-1.6062,-1.6076,-1.6109,-1.6122,-1.6149,-1.618,-1.6214,-1.6236,-1.627,-1.6315,-1.6324,-1.6333,-1.6335,-1.6337,-1.634,-1.6366,-1.637,-1.6323,-1.6323,-1.6323,0,0,-1.5892,-1.5922,-1.5942,-1.5994,-1.602,-1.6053,-1.6053,-1.6088,-1.6113,-1.6127,-1.617,-1.6191,-1.6228,-1.6272,-1.6293,-1.629,-1.6356,-1.634,-1.6341,-1.6344,-1.6369,-1.6373,-1.6377,-1.6325,-1.6325,-1.6324,0,0,-1.592,-1.5947,-1.5981,-1.6006,-1.6045,-1.6066,-1.6074,-1.6115,-1.613,-1.6173,-1.6185,-1.6214,-1.6273,-1.6298,-1.6319,-1.6358,-1.6364,-1.6368,-1.6379,-1.6404,-1.6408,-1.6411,-1.6425,-1.6429,-1.6371,-1.6371,-1.6371,0,-1.5923,-1.5974,-1.5997,-1.6032,-1.6054,-1.607,-1.6104,-1.6128,-1.6175,-1.6191,-1.6187,-1.626,-1.6286,-1.6337,-1.6346,-1.6362,-1.6372,-1.6363,-1.6405,-1.6409,-1.6412,-1.6426,-1.6431,-1.6371,-1.6371,-1.6371,-1.6371,0,-1.5975,-1.6011,-1.6033,-1.608,-1.6105,-1.6139,-1.6167,-1.619,-1.6201,-1.6222,-1.6266,-1.6297,-1.6337,-1.6351,-1.6362,-1.6403,-1.64,-1.6401,-1.6393,-1.6417,-1.643,-1.6435,-1.6372,-1.6372,-1.6372,-1.6372,0,0,-1.5998,-1.6057,-1.6065,-1.6087,-1.6131,-1.6159,-1.6194,-1.6233,-1.6253,-1.6285,-1.6315,-1.6364,-1.6365,-1.6388,-1.6403,-1.6424,-1.6453,-1.6422,-1.6423,-1.6426,-1.65,-1.6499,-1.6505,-1.6458,-1.6459,-1.6459,-1.6497,0,-1.6032,-1.6096,-1.6117,-1.617,-1.6203,-1.6218,-1.6248,-1.6279,-1.6299,-1.6329,-1.6351,-1.6386,-1.6384,-1.6399,-1.6421,-1.6444,-1.6468,-1.6442,-1.6485,-1.6486,-1.6475,-1.6512,-1.6511,-1.6545,-1.6502,-1.6503,-1.6504,0,-1.608,-1.6114,-1.617,-1.6211,-1.6225,-1.6252,-1.6291,-1.632,-1.6354,-1.6367,-1.6394,-1.6407,-1.6444,-1.6434,-1.6485,-1.6468,-1.6486,-1.6501,-1.6503,-1.6507,-1.6496,-1.6517,-1.6556,-1.6561,-1.6512,-1.6511,-1.6511,0,-1.6091,-1.6151,-1.6192,-1.621,-1.6258,-1.6277,-1.6298,-1.6332,-1.6355,-1.6388,-1.6403,-1.644,-1.646,-1.6488,-1.6511,-1.6502,-1.656,-1.6552,-1.6571,-1.6571,-1.6583,-1.6581,-1.6625,-1.6595,-1.6595,-1.6595,-1.6595,0,-1.6127,-1.616,-1.6198,-1.6223,-1.6261,-1.6286,-1.6322,-1.6344,-1.6374,-1.6404,-1.6419,-1.6446,-1.6474,-1.6505,-1.6523,-1.6563,-1.6572,-1.6583,-1.6587,-1.6582,-1.658,-1.6594,-1.6592,-1.6596,-1.6596,-1.6596,-1.6595,0,-1.6145,-1.6172,-1.6218,-1.626,-1.6272,-1.6298,-1.6334,-1.6359,-1.638,-1.6417,-1.6427,-1.646,-1.6497,-1.6523,-1.657,-1.6582,-1.6625,-1.6629,-1.6613,-1.6615,-1.6633,-1.6631,-1.6687,-1.6695,-1.666,-1.666,-1.666,0,-1.6166,-1.6192,-1.6238,-1.6259,-1.628,-1.6314,-1.6337,-1.6362,-1.6386,-1.6428,-1.6448,-1.6486,-1.6518,-1.6577,-1.6605,-1.6641,-1.6646,-1.6663,-1.6652,-1.6645,-1.6646,-1.6644,-1.6647,-1.6665,-1.6665,-1.6665,-1.6665,0,-1.62,-1.6212,-1.6245,-1.6284,-1.6311,-1.6342,-1.6373,-1.639,-1.642,-1.6446,-1.6485,-1.651,-1.6558,-1.6596,-1.6636,-1.6657,-1.6666,-1.6669,-1.6675,-1.667,-1.6659,-1.6665,-1.6618,-1.6667,-1.6667,-1.6667,-1.6667,-1.6667,-1.622,-1.6244,-1.628,-1.6317,-1.6343,-1.6372,-1.6398,-1.6422,-1.6455,-1.6497,-1.651,-1.655,-1.6584,-1.6638,-1.666,-1.6692,-1.669,-1.6699,-1.6701,-1.6703,-1.6703,-1.6655,-1.6699,-1.6699,-1.6699,-1.6699,-1.6699,0,-1.6255,-1.6279,-1.6312,-1.6356,-1.6385,-1.6392,-1.6427,-1.645,-1.6486,-1.6517,-1.6549,-1.6593,-1.663,-1.6661,-1.6699,-1.6718,-1.6723,-1.6727,-1.6726,-1.6731,-1.6702,-1.6693,-1.6722,-1.6722,-1.6722,-1.6722,-1.6722,-1.6722,-1.6276,-1.6318,-1.6334,-1.6388,-1.6412,-1.6452,-1.6471,-1.6498,-1.6523,-1.6572,-1.6603,-1.6623,-1.6655,-1.6695,-1.6729,-1.6737,-1.6751,-1.6754,-1.6763,-1.6735,-1.6733,-1.673,-1.6721,-1.6756,-1.6756,-1.6788,-1.6789,-1.6789]}]]